Regional Weather Roundup
Issued by NWS

Home | Current Version | Previous Version | Text Only | Print | Product List | Glossary On
Versions: 1 2 3 4 5 6 7 8 9 10 11 12 13 14 15 16 17 18 19 20 21 22 23 24 25 26 27 28 29 30 31 32 33 34 35 36 37 38 39 40 41 42 43 44 45 46 47 48 49 50
000
ASUS44 KFWD 091615
RWRTX
NORTH TEXAS HOURLY WEATHER ROUNDUP
NATIONAL WEATHER SERVICE FORT WORTH TX
1000 AM CST FRI DEC 09 2016

NOTE: "FAIR" INDICATES FEW OR NO CLOUDS BELOW 12,000 FEET WITH NO
SIGNIFICANT WEATHER AND/OR OBSTRUCTIONS TO VISIBILITY.

TXZ118-119-091700-
DALLAS/FORT WORTH METROPLEX

CITY           SKY/WX    TMP DP  RH WIND       PRES   REMARKS
DFW AIRPORT    PTSUNNY   34  13  41 E6        30.66R WCI  29
DALLAS LOVE    PTSUNNY   34  16  47 E7        30.67S WCI  28
FTW MEACHAM    CLOUDY    34  17  50 E5        30.66R WCI  30
DAL-EXECUTIVE  CLOUDY    34  16  47 NE8       30.65S WCI  27
FTW-ALLIANCE   CLOUDY    33  18  53 E6        30.65S WCI  28
FTW-NAS-JRB    CLOUDY    34  18  52 E5        30.67R WCI  30
FTW-SPINKS     CLOUDY    34  16  47 NE5       30.67R WCI  30
ARLINGTON      CLOUDY    34  14  43 NE8       30.66S WCI  27
GRAND PRAIRIE  PTSUNNY   34  14  44 N7        30.68S WCI  28
ADDISON        CLOUDY    34  16  47 NE10      30.67R WCI  26
MESQUITE       CLOUDY    32  14  47 NE6       30.67F WCI  26
LANCASTER      CLOUDY    34  17  48 NE8       30.68S WCI  28
$$

TXZ091>094-102>105-117-120-121-131>134-091700-
NORTH CENTRAL TEXAS

CITY           SKY/WX    TMP DP  RH WIND       PRES   REMARKS
SHRMAN/DENISON CLOUDY    34  17  49 E8        30.66F WCI  27
GAINESVILLE    CLOUDY    32  18  57 E7        30.67S WCI  25
BOWIE          CLOUDY    32  17  52 SE5       30.63S WCI  28
BRIDGEPORT     CLOUDY    32  20  60 SE7       30.66F WCI  26
DECATUR        CLOUDY    32  17  54 E9        30.63F WCI  24
DENTON         CLOUDY    32  16  51 E7        30.66R WCI  26
MCKINNEY       CLOUDY    31  17  56 E6        30.67S WCI  25
BONHAM         CLOUDY    28  16  59 E9        30.67F WCI  20
GREENVILLE       N/A     32  18  55 NE10      30.67S WCI  24
ROCKWALL       CLOUDY    32  16  51 NE6       30.66F WCI  26
TERRELL        FLURRIES  34  15  46 NE9       30.67S WCI  27
WAXAHACHIE     CLOUDY    33  17  52 NE7       30.66S WCI  26
CLEBURNE       CLOUDY    32  14  47 NE7       30.66S WCI  26
GRANBURY       CLOUDY    34  18  52 CALM      30.67S
$$

TXZ083>090-098>101-113>116-127>130-139>142-154-155-091700-
WESTERN NORTH TEXAS

CITY           SKY/WX    TMP DP  RH WIND       PRES   REMARKS
WICHITA FALLS  CLOUDY    31  16  54 SE8       30.63R WCI  23
WF-KICKAPOO    CLOUDY    31  16  53 SE6       30.64S WCI  25
VERNON         PTSUNNY   33  11  40 S10       30.62R WCI  24
ABILENE        FLURRIES  30  17  58 S6        30.58S WCI  24
ABILENE-DYESS  CLOUDY    31  16  53 SE7       30.57R WCI  24
CISCO          CLOUDY    30  14  51 SE8       30.59S WCI  23
BRECKENRIDGE   CLOUDY    32  16  51 SE6       30.62S WCI  27
GRAHAM           N/A     32  17  55 SE6       30.61F WCI  26
MINERAL WELLS  CLOUDY    32  13  45 E5        30.64R WCI  27
STEPHENVILLE   CLOUDY    32  18  56 E5        30.65R WCI  27
COMANCHE       CLOUDY    32  17  54 MISG      30.62S
BROWNWOOD      CLOUDY    32  14  47 E3        30.61F
COLEMAN        CLOUDY    32  18  56 E5        30.60R WCI  27
$$

TXZ143>147-156>162-174-175-091700-
CENTRAL TEXAS

CITY           SKY/WX    TMP DP  RH WIND       PRES   REMARKS
WACO           CLOUDY    34  18  52 NE7       30.67R WCI  28
WACO-MCGREGOR  CLOUDY    34  19  54 NE7       30.66S WCI  28
HILLSBORO      CLOUDY    33  17  51 NE13      30.65S WCI  24
CORSICANA      CLOUDY    35  17  47 NE8       30.67S WCI  29
MEXIA          CLOUDY    35  18  49 E8        30.65R WCI  28
HEARNE         CLOUDY    37  18  46 NE5       30.66F WCI  33
CAMERON        CLOUDY    36  20  53 NE7       30.66R WCI  30
TEMPLE         CLOUDY    36  18  48 N7        30.66R WCI  30
KILLEEN        CLOUDY    34  17  49 E6        30.62R WCI  28
KILLEEN-SKYLRK CLOUDY    35  17  47 NE8       30.65R WCI  29
FORT HOOD      CLOUDY    34  17  49 NE8       30.61R WCI  28
GATESVILLE     CLOUDY    34  19  55 E6        30.66F WCI  29
HAMILTON       CLOUDY    34  16  47 E7        30.62S WCI  27
LAMPASAS       CLOUDY    35  18  50 NE5       30.61S WCI  31
$$

TXZ095>097-106>112-122>126-135>138-148>153-164>167-091700-
EAST TEXAS

CITY           SKY/WX    TMP DP  RH WIND       PRES   REMARKS
PARIS          PTSUNNY   32  16  51 E8        30.67F WCI  25
SULPHUR SPRNGS CLOUDY    32  18  55 NE7       30.70S WCI  26
MOUNT PLEASANT CLOUDY    33  18  53 NE6       30.70S WCI  27
GILMER         CLOUDY    32  17  54 NE6       30.67F WCI  27
MINEOLA        MOSUNNY   34  16  47 E5        30.67S WCI  30
TYLER          MOSUNNY   35  17  47 NE9       30.65S HAZE    WCI  28
LONGVIEW       PTSUNNY   36  19  50 E9        30.65F WCI  29
MARSHALL       SUNNY     35  18  49 NE5       30.69S WCI  31
ATHENS         CLOUDY    32  18  55 NE5       30.66R WCI  27
PALESTINE      PTSUNNY   35  19  52 NE7       30.67S WCI  29
JACKSONVILLE   CLOUDY    33  19  56 NE10      30.65R WCI  25
HENDERSON      CLOUDY    34  18  52 NE7       30.66F WCI  28
CENTER         SUNNY     37  19  48 NE7       30.67R WCI  31
NACOGDOCHES    SUNNY     37  18  44 E8        30.64R WCI  31
LUFKIN         SUNNY     37  19  48 E9        30.64R WCI  30
$$

SUPPLEMENTAL OBSERVATIONS (CENTRAL)

CITY           SKY/WX    TMP DP  RH WIND       PRES   REMARKS
DENISON DAM      N/A     32  18  55 E3          N/A
CADDO GRASSLND   N/A     32  18  55 NE3         N/A
PAT MAYSE LAKE   N/A     32  19  59 NE2         N/A
GREENVILLE       N/A     32  18  55 NE9         N/A  WCI  24
CEDAR HILL       N/A     36  18  48 NE5         N/A  WCI  32
ATHENS           N/A     36  18  48 NE6         N/A  WCI  31
LAKE LIMESTONE   N/A     39  18  41 NE9         N/A  WCI  33
MCGREGOR         N/A     36  19  51 NE6         N/A  WCI  31
TEMPLE           N/A     36  19  51 NE9         N/A  WCI  29
$$

SUPPLEMENTAL OBSERVATIONS (WEST)

CITY           SKY/WX    TMP DP  RH WIND       PRES   REMARKS
MILLERS CREEK    N/A     32  19  59 S8          N/A  WCI  25
POSSUM KINGDOM   N/A     32  16  51 SE7         N/A  WCI  26
LBJ GRASSLAND    N/A     34  18  51 E6          N/A  WCI  29
GRANBURY         N/A     34  19  55 E5          N/A  WCI  30
COMANCHE         N/A     32  16  51 E7          N/A  WCI  26
HAMBY            N/A     32  18  55 SE6         N/A  WCI  26
COLORADO BEND    N/A     34  16  47 SE3         N/A
$$

SUPPLEMENTAL OBSERVATIONS (EAST)

CITY           SKY/WX    TMP DP  RH WIND       PRES   REMARKS
CLARKSVILLE      N/A     34  16  47 E8          N/A  WCI  27
LINDEN           N/A     34  16  47 E8          N/A  WCI  27
CADDO LAKE       N/A    N/A N/A N/A E5          N/A
GILMER           N/A     36  19  51 E5          N/A  WCI  32
HENDERSON        N/A     36  19  51 E7          N/A  WCI  30
N SABINE NF      N/A     36  21  55 MISG        N/A
S SABINE NF      N/A     37  19  48 N6          N/A  WCI  33
$$

SUPPLEMENTAL OBSERVATIONS ARE A COLLECTION OF AUTOMATED INSTRUMENTS
THAT ARE MAINTAINED BY A VARIETY OF FEDERAL AND STATE AGENCIES.
CERTAIN ELEMENTS...SUCH AS HUMIDITY VALUES AND SUSTAINED WIND
SPEEDS...MAY BE APPROXIMATED.




USA.gov is the U.S. government's official web portal to all federal, state and local government web resources and services.